Content
SEND FEEDBACK

Daily
Averages
Monthly
Summary
Turkmenistan

ASHGABAT, TURKMENISTAN


Home > Asia > Turkmenistan
Elevation: 236 meters     Latitude: 37 58N     Longitude: 058 20E

WEATHER
 
SELECT A DAY
Number of Records: 175,101;   Date Range: 3/15/97 - 4/23/14
 
SHARE

PRINT THIS DATA

[ ← Previous Day ]
WEATHER ALMANAC - 10 APRIL, 2013
[ Next Day → ]
[ °F ]   °C
Weather ElementAverageHighLow
Temperature22.7 °C33 °C (1:00 pm)12 °C (4:00 am)
Dewpoint3.6 °C8.3 °C (11:00 pm)-1 °C (12:00 pm)
Humidity31.3 %62 % (4:00 am)7 % (2:00 pm)
Barometer1005.4 hPa1009.1 hPa (9:00 pm)1003 hPa (4:00 am)
Wind Speed11.1 km/h25.3 km/h (2:00 pm)
Weather ElementAverage
Visibility10 km
Wind DirectionSSW (200.6 °)

Weather ElementTotal
Precipitation---
Cooling Degree Days4.2 (Base 18.3)
Growing Degree Days12.5 (Base 10)
Averaged from 34 records on 10 April, 2013
WEATHER CONDITIONS BREAKOUT
WIND DIRECTION BREAKOUT
WEATHER BY HOUR - 10 APRIL, 2013
[ °F ]   °C
Local TimeTemperatureDewpointHumidityBarometerVisibilityWind DirectionWind SpeedGust SpeedPrecipitationEventsConditions
1:00 AM16 °C2 °C39 %1005.1 hPa10 kmSouth (170°)7.2 km/hClear
2:00 AM15.6 °C6.1 °C42 %1004.7 hPa9.7 kmSW (230°)3.5 km/h
2:00 AM16 °C3 °C42 %1004.1 hPa10 kmSW (220°)7.2 km/hClear
3:00 AM14 °C4 °C51 %1004.1 hPa10 kmCalmClear
4:00 AM12 °C5 °C62 %1003 hPa10 kmSouth (180°)7.2 km/hClear
4:30 AM14 °C5 °C55 %1003 hPa10 kmSSE (160°)10.8 km/hClear
5:00 AM12.8 °C4.4 °C45 %1004.1 hPa9.7 kmSE (140°)3.5 km/h
5:00 AM14 °C4 °C51 %1003 hPa10 kmSSE (160°)10.8 km/hClear
5:30 AM14 °C3 °C48 %1003 hPa10 kmSouth (180°)7.2 km/hClear
6:00 AM14 °C4 °C51 %1003 hPa10 kmSW (220°)7.2 km/hClear
6:30 AM13 °C4 °C54 %1004.1 hPa10 kmVariable3.5 km/hClear
7:00 AM12 °C5 °C62 %1004.1 hPa10 kmCalmPartly Cloudy
8:00 AM14.4 °C6.1 °C47 %1005.1 hPa9.7 kmSouth (170°)3.5 km/hClear
8:00 AM17 °C5 °C45 %1005.1 hPa10 kmSSE (160°)7.2 km/hPartly Cloudy
9:00 AM21 °C4 °C33 %1005.1 hPa10 kmVariable3.5 km/hPartly Cloudy
10:00 AM26 °C3 °C23 %1006.1 hPa10 kmVariable3.5 km/hScattered Clouds
11:00 AM30 °C0 °C14 %1006.1 hPa10 kmEast (80°)7.2 km/hMostly Cloudy
11:00 AM28.3 °C2.8 °C11 %1005.1 hPa9.7 kmCalmClear
12:00 PM32 °C-1 °C12 %1006.1 hPa10 kmNorth (350°)7.2 km/hMostly Cloudy
1:00 PM33 °C0 °C12 %1006.1 hPa10 kmNNW (330°)18 km/hOvercast
2:00 PM32.2 °C1.7 °C7 %1004.7 hPa9.7 kmWest (280°)21.6 km/hOvercast
2:00 PM32 °C1 °C14 %1006.1 hPa10 kmWNW (290°)25.3 km/hOvercast
3:00 PM33 °C1 °C13 %1006.1 hPa10 kmWNW (300°)25.3 km/hOvercast
4:00 PM33 °C1 °C13 %1006.1 hPa10 kmWNW (290°)25.3 km/hOvercast
5:00 PM32 °C2 °C15 %1006.1 hPa10 kmWest (270°)21.6 km/hOvercast
5:00 PM32.2 °C2.8 °C8 %1004.7 hPa9.7 kmWest (270°)21.6 km/hOvercast
6:00 PM32 °C2 °C15 %1006.1 hPa10 kmWest (270°)18 km/hOvercast
7:00 PM29 °C4 °C20 %1007.1 hPa10 kmWest (280°)14.3 km/hMostly Cloudy
8:00 PM26.7 °C6.7 °C18 %1006.8 hPa9.7 kmWNW (290°)18 km/hClear
8:00 PM26 °C5 °C26 %1008.1 hPa10 kmWNW (300°)18 km/hMostly Cloudy
9:00 PM25 °C6 °C29 %1009.1 hPa10 kmWest (260°)14.3 km/hMostly Cloudy
10:00 PM25 °C5 °C28 %1009.1 hPa10 kmWest (260°)14.3 km/hScattered Clouds
11:00 PM22.2 °C8.3 °C29 %1009.1 hPa9.7 kmWSW (250°)7.2 km/hScattered Clouds
11:00 PM24 °C6 °C31 %1009.1 hPa10 kmWest (260°)14.3 km/hMostly Cloudy
Hourly data recorded from UTAA, located 3.52 kilometers away from Ashgabat, Turkmenistan







STORIES FROM OUR PARTNERS